Tracking 25953 objects as of 16-Aug-2022
HD Live streaming from Space Station
objects crossing your sky now

ARIANE 3 DEB

Track ARIANE 3 DEB now!


NORAD ID: 33538
Int'l Code: 1988-081N
Perigee: 535.3 km
Apogee: 36,114.9 km
Inclination: 6.9 °
Period: 643.7 minutes
Semi major axis: 24696 km
RCS: 0.0238 m2 (small)
Launch date: September 8, 1988
Source: France (FR)
Launch site: FRENCH GUIANA (FRGUI)

Note: This is SATELLITE DEBRIS
aabbcc
Your satellite tracking list
Your tracking list is empty




NASA's NSSDC Master Catalog

Two Line Element Set (TLE):
1 33538U 88081N   22228.26607373  .00000214  00000-0  32540-2 0  9990
2 33538   6.8611 164.2436 7203481 344.7876 138.4071  2.23696869139060
Source of the keplerian elements: AFSPC